| time (UTC) | temp F | wind direction | speed MPH | gust MPH | rain 1hr in | rain 24hr in | rain mn in | humidity % | barometer mb |
| 20260905101542 | 90 | 119 | 1.0 | 5.0 | 0.00 | 0.00 | 0.00 | 42 | 1022.6 |
| 20260905100042 | 88 | 100 | 1.0 | 5.0 | 0.00 | 0.00 | 0.00 | 45 | 1022.6 |
| 20260905094557 | 88 | 0 | 1.0 | 4.0 | 0.00 | 0.00 | 0.00 | 42 | 1022.6 |
| 20260905093045 | 87 | 0 | 1.0 | 4.0 | 0.00 | 0.00 | 0.00 | 43 | 1022.4 |
| 20260905091542 | 86 | 325 | 0.0 | 4.0 | 0.00 | 0.00 | 0.00 | 47 | 1022.4 |
| 20260905090040 | 85 | 0 | 1.0 | 4.0 | 0.00 | 0.00 | 0.00 | 50 | 1022.3 |
| 20260905084543 | 83 | 314 | 1.0 | 6.0 | 0.00 | 0.00 | 0.00 | 52 | 1022.3 |
| 20260905083043 | 82 | 290 | 1.0 | 7.0 | 0.00 | 0.00 | 0.00 | 56 | 1022.3 |
| 20260905081538 | 80 | 286 | 3.0 | 7.0 | 0.00 | 0.00 | 0.00 | 60 | 1022.2 |
| 20260905080052 | 78 | 309 | 3.0 | 8.0 | 0.00 | 0.00 | 0.00 | 65 | 1022.1 |
| 20260905074545 | 77 | 263 | 0.0 | 4.0 | 0.00 | 0.00 | 0.00 | 69 | 1022.2 |
| 20260905073047 | 76 | 0 | 1.0 | 4.0 | 0.00 | 0.00 | 0.00 | 69 | 1022.2 |
| 20260905071553 | 76 | 274 | 4.0 | 7.0 | 0.00 | 0.00 | 0.00 | 69 | 1022.1 |
| 20260905070046 | 76 | 278 | 2.0 | 7.0 | 0.00 | 0.00 | 0.00 | 69 | 1021.9 |
| 20260905064549 | 76 | 304 | 2.0 | 7.0 | 0.00 | 0.00 | 0.00 | 69 | 1021.9 |
| 20260905063042 | 75 | 271 | 3.0 | 7.0 | 0.00 | 0.00 | 0.00 | 68 | 1021.7 |
| 20260905061603 | 75 | 275 | 3.0 | 7.0 | 0.00 | 0.00 | 0.00 | 67 | 1021.4 |
| 20260905060041 | 76 | 0 | 0.0 | 0.0 | 0.00 | 0.00 | 0.00 | 68 | 1021.1 |
| 20260905054541 | 75 | 0 | 0.0 | 0.0 | 0.00 | 0.00 | 0.00 | 67 | 1020.9 |
| 20260905053042 | 74 | 0 | 0.0 | 0.0 | 0.00 | 0.00 | 0.00 | 66 | 1020.9 |
| 20260905051545 | 73 | 0 | 0.0 | 3.0 | 0.00 | 0.00 | 0.00 | 66 | 1020.9 |
| 20260905050047 | 73 | 291 | 1.0 | 3.0 | 0.00 | 0.00 | 0.00 | 66 | 1021.0 |
| 20260905044549 | 73 | 0 | 0.0 | 0.0 | 0.00 | 0.00 | 0.00 | 66 | 1020.9 |
| 20260905043106 | 73 | 0 | 0.0 | 0.0 | 0.00 | 0.00 | 0.00 | 66 | 1021.0 |
| 20260905041548 | 73 | 0 | 0.0 | 0.0 | 0.00 | 0.00 | 0.00 | 67 | 1020.9 |
| 20260905040111 | 73 | 0 | 0.0 | 0.0 | 0.00 | 0.00 | 0.00 | 68 | 1020.9 |
| 20260905034543 | 73 | 0 | 0.0 | 0.0 | 0.00 | 0.00 | 0.00 | 67 | 1021.1 |
| 20260905033042 | 74 | 0 | 0.0 | 0.0 | 0.00 | 0.00 | 0.00 | 68 | 1021.0 |
| 20260905031539 | 74 | 0 | 0.0 | 0.0 | 0.00 | 0.00 | 0.00 | 68 | 1021.0 |
| 20260905030045 | 74 | 0 | 0.0 | 1.0 | 0.00 | 0.00 | 0.00 | 68 | 1021.0 |
| 20260905024543 | 74 | 293 | 0.0 | 4.0 | 0.00 | 0.00 | 0.00 | 67 | 1020.8 |
| 20260905023047 | 75 | 296 | 2.0 | 3.0 | 0.00 | 0.00 | 0.00 | 67 | 1020.8 |
| 20260905021547 | 75 | 298 | 2.0 | 4.0 | 0.00 | 0.00 | 0.00 | 67 | 1020.7 |
| 20260905020045 | 75 | 303 | 1.0 | 4.0 | 0.00 | 0.00 | 0.00 | 66 | 1020.6 |
| 20260905014546 | 76 | 0 | 0.0 | 0.0 | 0.00 | 0.00 | 0.00 | 66 | 1020.6 |
| 20260905013054 | 76 | 0 | 0.0 | 0.0 | 0.00 | 0.00 | 0.00 | 66 | 1020.7 |
| 20260905011543 | 76 | 0 | 0.0 | 0.0 | 0.00 | 0.00 | 0.00 | 66 | 1020.6 |
| 20260905010041 | 76 | 0 | 0.0 | 0.0 | 0.00 | 0.00 | 0.00 | 66 | 1020.8 |
| 20260905004547 | 76 | 0 | 0.0 | 0.0 | 0.00 | 0.00 | 0.00 | 66 | 1020.8 |
| 20260905003043 | 76 | 0 | 0.0 | 0.0 | 0.00 | 0.00 | 0.00 | 65 | 1020.9 |
| 20260905001542 | 76 | 0 | 0.0 | 0.0 | 0.00 | 0.00 | 0.00 | 65 | 1020.9 |
| 20260905000046 | 77 | 0 | 0.0 | 0.0 | 0.00 | 0.00 | 0.00 | 65 | 1021.0 |
| 20260904234547 | 78 | 0 | 0.0 | 0.0 | 0.00 | 0.00 | 0.00 | 66 | 1021.0 |
| 20260904233043 | 78 | 0 | 0.0 | 0.0 | 0.00 | 0.00 | 0.00 | 66 | 1020.9 |
| 20260904231540 | 78 | 0 | 0.0 | 0.0 | 0.00 | 0.00 | 0.00 | 66 | 1020.8 |
| 20260904230040 | 78 | 0 | 0.0 | 0.0 | 0.00 | 0.00 | 0.00 | 65 | 1020.7 |
| 20260904224551 | 79 | 0 | 0.0 | 0.0 | 0.00 | 0.00 | 0.00 | 65 | 1020.7 |
| 20260904223044 | 79 | 0 | 0.0 | 0.0 | 0.00 | 0.00 | 0.00 | 66 | 1020.6 |
| 20260904221542 | 79 | 0 | 0.0 | 0.0 | 0.00 | 0.00 | 0.00 | 65 | 1020.6 |
| 20260904220107 | 79 | 0 | 0.0 | 0.0 | 0.00 | 0.00 | 0.00 | 65 | 1020.6 |
| 20260904214541 | 79 | 0 | 0.0 | 0.0 | 0.00 | 0.00 | 0.00 | 65 | 1020.7 |
| 20260904213043 | 79 | 0 | 0.0 | 0.0 | 0.00 | 0.00 | 0.00 | 65 | 1020.8 |
| 20260904211539 | 79 | 0 | 0.0 | 4.0 | 0.00 | 0.00 | 0.00 | 65 | 1020.8 |
| 20260904210045 | 80 | 70 | 2.0 | 5.0 | 0.00 | 0.00 | 0.00 | 64 | 1020.8 |
| 20260904204549 | 80 | 104 | 1.0 | 7.0 | 0.00 | 0.00 | 0.00 | 64 | 1020.8 |
| 20260904203050 | 81 | 111 | 2.0 | 7.0 | 0.00 | 0.00 | 0.00 | 63 | 1020.7 |
| 20260904201543 | 81 | 88 | 2.0 | 6.0 | 0.00 | 0.00 | 0.00 | 62 | 1020.8 |
| 20260904200046 | 81 | 90 | 1.0 | 4.0 | 0.00 | 0.00 | 0.00 | 61 | 1020.7 |
| 20260904194550 | 82 | 85 | 3.0 | 8.0 | 0.00 | 0.00 | 0.00 | 60 | 1020.4 |
| 20260904193043 | 83 | 360 | 1.0 | 7.0 | 0.00 | 0.00 | 0.00 | 59 | 1020.3 |
| 20260904191546 | 83 | 109 | 2.0 | 4.0 | 0.00 | 0.00 | 0.00 | 57 | 1020.1 |
| 20260904190050 | 84 | 113 | 1.0 | 7.0 | 0.00 | 0.00 | 0.00 | 55 | 1020.1 |
| 20260904184549 | 84 | 140 | 3.0 | 7.0 | 0.00 | 0.00 | 0.00 | 53 | 1019.9 |
| 20260904183051 | 84 | 140 | 2.0 | 9.0 | 0.00 | 0.00 | 0.00 | 52 | 1019.8 |
| 20260904181539 | 85 | 115 | 4.0 | 9.0 | 0.00 | 0.00 | 0.00 | 51 | 1019.6 |
| 20260904180048 | 85 | 140 | 4.0 | 10.0 | 0.00 | 0.00 | 0.00 | 49 | 1019.5 |
| 20260904174545 | 86 | 126 | 6.0 | 9.0 | 0.00 | 0.00 | 0.00 | 47 | 1019.4 |
| 20260904173046 | 86 | 131 | 4.0 | 10.0 | 0.00 | 0.00 | 0.00 | 47 | 1019.4 |
| 20260904171545 | 87 | 121 | 7.0 | 11.0 | 0.00 | 0.00 | 0.00 | 47 | 1019.4 |
| 20260904170046 | 88 | 161 | 6.0 | 11.0 | 0.00 | 0.00 | 0.00 | 45 | 1019.2 |
| 20260904164541 | 88 | 116 | 7.0 | 13.0 | 0.00 | 0.00 | 0.00 | 42 | 1019.4 |
| 20260904163043 | 89 | 111 | 5.0 | 13.0 | 0.00 | 0.00 | 0.00 | 41 | 1019.4 |
| 20260904161543 | 89 | 165 | 8.0 | 15.0 | 0.00 | 0.00 | 0.00 | 42 | 1019.4 |
| 20260904160040 | 90 | 128 | 8.0 | 13.0 | 0.00 | 0.00 | 0.00 | 45 | 1019.3 |
| 20260904154541 | 90 | 137 | 9.0 | 15.0 | 0.00 | 0.00 | 0.00 | 45 | 1019.3 |
| 20260904153051 | 91 | 124 | 7.0 | 14.0 | 0.00 | 0.00 | 0.00 | 45 | 1019.3 |
| 20260904151542 | 91 | 119 | 9.0 | 18.0 | 0.00 | 0.00 | 0.00 | 45 | 1019.2 |
| 20260904150051 | 91 | 131 | 8.0 | 14.0 | 0.00 | 0.00 | 0.00 | 45 | 1019.2 |
| 20260904144558 | 92 | 119 | 7.0 | 14.0 | 0.00 | 0.00 | 0.00 | 44 | 1019.3 |
| 20260904143050 | 93 | 99 | 9.0 | 15.0 | 0.00 | 0.00 | 0.00 | 42 | 1019.2 |
| 20260904141540 | 93 | 108 | 7.0 | 14.0 | 0.00 | 0.00 | 0.00 | 42 | 1019.1 |
| 20260904140055 | 94 | 169 | 7.0 | 15.0 | 0.00 | 0.00 | 0.00 | 42 | 1019.3 |
| 20260904134549 | 93 | 119 | 7.0 | 12.0 | 0.00 | 0.00 | 0.00 | 44 | 1019.4 |
| 20260904133044 | 93 | 69 | 6.0 | 16.0 | 0.00 | 0.00 | 0.00 | 44 | 1019.4 |
| 20260904131545 | 93 | 93 | 7.0 | 14.0 | 0.00 | 0.00 | 0.00 | 43 | 1019.7 |
| 20260904130046 | 94 | 90 | 6.0 | 12.0 | 0.00 | 0.00 | 0.00 | 41 | 1019.8 |
| 20260904124545 | 94 | 134 | 4.0 | 12.0 | 0.00 | 0.00 | 0.00 | 43 | 1019.8 |
| 20260904123045 | 93 | 109 | 6.0 | 12.0 | 0.00 | 0.00 | 0.00 | 43 | 1020.0 |
| 20260904121542 | 94 | 82 | 6.0 | 13.0 | 0.00 | 0.00 | 0.00 | 42 | 1020.1 |
| 20260904120049 | 94 | 129 | 7.0 | 12.0 | 0.00 | 0.00 | 0.00 | 40 | 1020.3 |
| 20260904114544 | 94 | 87 | 4.0 | 10.0 | 0.00 | 0.00 | 0.00 | 36 | 1020.4 |
| 20260904113047 | 94 | 156 | 3.0 | 11.0 | 0.00 | 0.00 | 0.00 | 31 | 1020.6 |
| 20260904111543 | 93 | 178 | 6.0 | 12.0 | 0.00 | 0.00 | 0.00 | 33 | 1020.7 |
| 20260904110040 | 93 | 137 | 3.0 | 9.0 | 0.00 | 0.00 | 0.00 | 31 | 1020.9 |
| 20260904104544 | 91 | 64 | 2.0 | 9.0 | 0.00 | 0.00 | 0.00 | 34 | 1021.0 |
| 20260904103046 | 90 | 73 | 2.0 | 7.0 | 0.00 | 0.00 | 0.00 | 41 | 1021.3 |